Tracking 28915 objects as of 30-May-2024
HD Live streaming from Space Station
objects crossing your sky now

S-NET C

Track S-NET C now!
10-day predictions
S-NET C is classified as:


NORAD ID: 43189
Int'l Code: 2018-014K
Perigee: 550.5 km
Apogee: 570.7 km
Inclination: 97.6 °
Period: 95.7 minutes
Semi major axis: 6931 km
RCS: Unknown
Launch date: February 1, 2018
Source: Germany (GER)
Launch site: VOSTOCHNY COSMODROME (VOSTO)

Uplink (MHz):
Downlink (MHz): 435.950/2263.000
Beacon (MHz):
Mode: 1k2*/2k4 FFSK
Call sign: DP0TBE
Status: Inactive

Your satellite tracking list
Your tracking list is empty




NASA's NSSDC Master Catalog

Two Line Element Set (TLE):
1 43189U 18014K   24151.16647105  .00004158  00000-0  30172-3 0  9996
2 43189  97.5941  53.3281 0014572  60.8434 299.4248 15.04369630344341
Source of the keplerian elements: AMSAT